Probability
16 13 10 10 10 6 6 6 6 6 3 3 3 3 3 3 0 3 3 0 0 0 0 3 3 3 0 0 0 0 0 0 0 0 0 0 0 0 0 0 0 0 0
13 13 13 10 6 6 6 6 6 6 6 10 6 3 3 3 3 6 6 0 0 0 0 0 0 3 0 0 0 0 0 0 0 0 0 0 0 0 0 0 0 0 0
16 16 13 10 6 6 6 6 6 6 6 6 6 6 6 3 6 6 6 3 3 0 0 3 3 3 0 0 0 0 3 0 0 0 0 0 0 0 0 0 0 0 0
10 13 13 10 6 6 6 6 6 6 6 6 6 6 3 6 6 6 6 3 3 3 0 0 0 0 0 0 0 0 0 0 0 0 0 0 0 0 0 0 0 0 0
6 10 10 10 10 6 6 6 6 6 6 6 6 3 3 3 3 3 0 0 3 3 3 0 0 0 0 0 0 0 0 0 0 0 0 0 0 0 0 0 0 0 0
10 10 10 10 10 6 6 6 6 3 3 3 3 0 3 3 3 3 0 0 0 0 0 0 0 0 0 0 0 0 0 0 0 0 0 0 0 0 0 0 0 0 0
10 10 10 10 10 10 6 6 6 0 0 3 3 0 0 0 0 0 0 3 0 0 0 0 0 0 0 0 0 0 0 0 0 0 0 0 3 3 0 0 0 0 0
0 3 6 6 10 10 6 3 3 0 0 0 0 0 0 0 3 0 0 0 0 0 0 0 0 0 0 0 0 0 0 0 0 0 0 0 0 0 0 0 0 0 0
0 0 3 3 3 10 6 3 0 3 3 0 0 0 0 0 0 0 0 0 0 0 0 0 0 0 0 0 0 0 0 0 0 0 0 0 0 0 0 0 0 0 0
0 3 3 3 3 3 3 0 0 0 0 0 0 0 0 0 0 0 0 0 0 0 0 0 0 0 0 0 0 0 0 0 0 0 0 0 0 0 0 0 0 0 0
3 3 3 3 3 0 0 0 0 0 0 0 0 0 0 0 0 0 0 0 0 0 0 0 0 0 0 0 0 0 0 0 0 0 0 0 0 0 0 0 0 0 0
0 3 3 3 3 3 0 0 0 0 0 0 0 0 0 0 0 0 0 0 0 0 0 0 0 0 0 0 0 0 0 0 0 0 0 0 0 0 0 0 0 0 0
0 0 0 3 3 3 3 0 0 0 0 0 0 0 0 0 0 0 0 0 0 0 0 0 0 0 0 0 0 0 0 0 0 0 0 0 0 0 0 0 0 0 0
3 3 3 3 3 3 0 0 0 0 0 0 0 0 0 0 0 0 0 0 0 0 0 0 0 0 0 0 0 0 0 0 0 0 0 0 0 0 0 0 0 0 0
3 3 3 3 0 0 0 0 0 0 0 0 0 0 0 0 0 0 0 0 0 0 0 0 0 0 0 0 0 0 0 0 0 0 0 0 0 0 0 0 0 0 0
3 3 3 0 0 0 0 0 0 0 0 0 0 0 0 0 0 0 0 0 0 0 0 0 0 0 0 0 0 0 0 0 0 0 0 0 0 0 0 0 0 0 0
3 3 3 0 0 0 0 0 0 0 0 0 0 0 0 0 0 0 0 0 0 0 0 0 0 0 0 0 0 0 0 0 0 0 0 0 0 0 0 0 0 0 0
0 3 0 0 0 0 0 0 0 0 0 0 0 0 0 0 0 0 0 0 0 0 0 0 0 0 0 0 0 0 0 0 0 0 0 0 0 0 0 0 0 0 0
0 0 0 0 0 0 0 0 0 0 0 0 0 0 0 0 0 0 0 0 0 0 0 0 0 0 0 0 0 0 0 0 0 0 0 0 0 0 0 0 0 0 0
0 0 0 0 0 0 0 0 0 0 0 0 0 0 0 0 0 0 0 0 0 0 0 0 0 0 0 0 0 0 0 0 0 0 0 0 0 0 0 0 0 0 0
0 0 0 0 0 0 0 0 0 0 0 0 0 0 0 0 0 0 0 0 0 0 0 0 0 0 0 0 0 0 0 0 0 0 0 0 0 0 0 0 0 0 0
0 0 0 0 0 0 0 0 0 0 0 0 0 0 0 0 0 0 0 0 0 0 0 0 0 0 0 0 0 0 0 0 0 0 0 0 0 0 0 0 0 0 0
0 0 0 0 0 0 0 0 0 0 0 0 0 0 0 0 0 0 0 0 0 0 0 0 0 0 0 0 0 0 0 0 0 0 0 0 0 0 0 0 0 0 0
0 0 0 0 0 0 0 0 0 0 0 0 0 0 0 0 0 0 0 0 0 0 0 0 0 0 0 0 0 0 0 0 0 0 0 0 0 0 0 0 0 0 0
0 0 0 0 0 0 0 0 0 0 0 0 0 0 0 0 0 0 0 0 0 0 0 0 0 0 0 0 0 0 0 0 0 0 0 0 0 0 0 0 0 0 0
0 0 0 0 0 0 0 0 0 0 0 0 0 0 0 0 0 0 0 0 0 0 0 0 0 0 0 0 0 0 0 0 0 0 0 0 0 0 0 0 0 0 0
Height
5848 5849 5849 5849 5849 5849 5849 5848 5848 5847 5847 5846 5845 5844 5842 5841 5839 5838 5836 5835 5834 5832 5830 5829 5827 5826 5824 5823 5821 5820 5818 5816 5815 5814 5812 5810 5809 5808 5806 5805 5803 5802 5801
5843 5843 5844 5844 5844 5844 5843 5843 5842 5842 5841 5840 5839 5838 5837 5835 5834 5832 5830 5829 5827 5826 5824 5822 5821 5819 5817 5816 5814 5812 5811 5809 5808 5806 5805 5803 5801 5800 5799 5797 5796 5794 5793
5837 5838 5838 5838 5838 5838 5837 5837 5837 5836 5835 5834 5833 5832 5830 5829 5827 5825 5823 5822 5820 5818 5817 5815 5813 5812 5810 5808 5806 5805 5803 5801 5800 5798 5796 5795 5793 5792 5790 5788 5787 5786 5784
5831 5831 5832 5832 5832 5832 5831 5831 5831 5830 5829 5828 5827 5825 5824 5822 5820 5818 5816 5814 5813 5811 5809 5807 5806 5804 5802 5800 5798 5797 5795 5793 5791 5790 5788 5786 5784 5782 5781 5779 5777 5776 5775
5824 5825 5826 5826 5825 5825 5825 5824 5824 5823 5822 5820 5819 5818 5816 5814 5813 5811 5809 5807 5805 5803 5801 5800 5797 5795 5793 5791 5789 5788 5786 5784 5782 5780 5778 5776 5774 5772 5770 5769 5767 5765 5764
5818 5818 5819 5819 5819 5818 5818 5817 5816 5815 5814 5813 5811 5810 5808 5806 5805 5803 5801 5799 5796 5794 5793 5791 5789 5787 5785 5782 5780 5778 5776 5774 5772 5770 5767 5765 5763 5761 5759 5757 5755 5754 5752
5810 5811 5812 5812 5811 5811 5810 5809 5808 5807 5806 5804 5803 5802 5800 5798 5796 5794 5792 5790 5788 5786 5784 5781 5779 5777 5775 5773 5770 5768 5766 5763 5761 5759 5756 5754 5752 5749 5747 5745 5743 5741 5740
5803 5804 5804 5804 5804 5803 5802 5801 5800 5799 5798 5796 5795 5793 5792 5791 5788 5786 5784 5781 5779 5776 5774 5772 5769 5767 5765 5762 5760 5757 5755 5752 5749 5747 5744 5741 5739 5736 5734 5732 5730 5728 5726
5795 5796 5796 5796 5796 5795 5794 5793 5792 5791 5790 5788 5786 5784 5782 5781 5779 5778 5775 5772 5770 5767 5765 5762 5759 5757 5754 5751 5748 5745 5743 5740 5737 5734 5731 5728 5725 5722 5719 5717 5715 5713 5711
5787 5787 5787 5787 5787 5787 5786 5785 5783 5782 5780 5779 5777 5775 5773 5770 5769 5768 5767 5763 5760 5758 5755 5752 5750 5746 5743 5740 5737 5733 5730 5727 5723 5720 5717 5714 5710 5707 5704 5702 5699 5697 5696
5778 5779 5779 5779 5779 5778 5777 5776 5774 5772 5771 5769 5768 5766 5763 5761 5758 5757 5756 5755 5751 5748 5745 5742 5739 5735 5731 5728 5724 5721 5717 5713 5710 5706 5702 5699 5695 5692 5689 5686 5684 5682 5680
5770 5770 5770 5770 5769 5769 5768 5766 5765 5763 5761 5760 5758 5756 5754 5752 5749 5747 5745 5744 5741 5739 5735 5731 5728 5724 5719 5715 5712 5708 5704 5700 5696 5692 5688 5684 5681 5677 5674 5672 5670 5668 5666
5761 5761 5761 5761 5760 5759 5758 5757 5755 5753 5751 5749 5748 5746 5743 5741 5739 5737 5734 5732 5730 5728 5725 5721 5716 5711 5707 5703 5699 5695 5691 5687 5683 5679 5675 5670 5667 5663 5660 5658 5655 5653 5652
5751 5752 5751 5751 5750 5749 5748 5747 5745 5743 5741 5739 5737 5735 5733 5731 5729 5726 5723 5720 5718 5717 5715 5711 5706 5700 5695 5691 5687 5683 5679 5675 5670 5666 5662 5658 5654 5651 5647 5644 5641 5639 5637
5742 5742 5741 5741 5740 5739 5738 5736 5735 5733 5731 5729 5727 5724 5722 5720 5718 5715 5713 5709 5707 5704 5703 5700 5694 5689 5683 5679 5674 5670 5666 5662 5658 5653 5649 5646 5642 5638 5635 5631 5628 5625 5623
5731 5731 5731 5731 5730 5729 5728 5726 5724 5722 5720 5718 5716 5714 5712 5710 5707 5705 5702 5699 5695 5691 5689 5687 5682 5677 5671 5667 5662 5658 5654 5650 5645 5641 5637 5633 5630 5626 5622 5618 5615 5612 5609
5721 5721 5721 5720 5719 5718 5717 5715 5714 5712 5710 5708 5706 5704 5702 5700 5697 5694 5691 5688 5684 5679 5676 5674 5669 5664 5659 5654 5650 5646 5641 5637 5634 5629 5625 5621 5617 5613 5609 5605 5602 5598 5595
5710 5710 5710 5709 5708 5707 5706 5704 5703 5701 5700 5698 5696 5694 5691 5689 5686 5683 5680 5676 5672 5667 5663 5660 5657 5652 5647 5642 5638 5634 5630 5625 5621 5617 5613 5608 5604 5600 5596 5592 5588 5585 5581
5699 5699 5698 5698 5697 5696 5694 5693 5692 5690 5689 5687 5685 5683 5680 5678 5675 5672 5668 5664 5660 5656 5651 5647 5644 5640 5635 5630 5626 5622 5617 5613 5609 5605 5600 5596 5591 5587 5582 5578 5575 5571 5568
5687 5687 5687 5686 5685 5684 5683 5682 5681 5679 5678 5676 5674 5672 5669 5666 5663 5660 5656 5652 5648 5643 5639 5635 5631 5627 5622 5618 5613 5609 5605 5601 5596 5591 5587 5582 5578 5573 5569 5565 5561 5557 5553
5675 5675 5675 5674 5673 5672 5671 5670 5669 5668 5666 5665 5663 5660 5657 5654 5651 5647 5644 5640 5635 5631 5627 5623 5619 5615 5610 5606 5601 5596 5592 5588 5583 5578 5574 5570 5565 5561 5556 5552 5548 5543 5539
5662 5662 5662 5662 5661 5660 5659 5658 5657 5656 5655 5653 5651 5648 5645 5642 5638 5635 5631 5627 5622 5618 5614 5611 5607 5603 5599 5594 5589 5584 5580 5575 5572 5568 5562 5558 5553 5548 5544 5539 5534 5529 5525
5650 5650 5649 5649 5649 5648 5647 5646 5645 5644 5642 5640 5638 5635 5633 5629 5625 5622 5618 5614 5610 5606 5602 5599 5595 5591 5587 5582 5577 5573 5568 5563 5558 5553 5549 5545 5540 5536 5531 5526 5521 5516 5511
5637 5637 5637 5636 5636 5635 5635 5634 5632 5631 5629 5627 5625 5622 5619 5616 5611 5608 5605 5601 5598 5594 5591 5587 5583 5579 5574 5569 5564 5560 5555 5550 5546 5541 5536 5533 5529 5524 5519 5514 5508 5503 5499
5624 5624 5624 5624 5623 5622 5622 5621 5619 5618 5616 5614 5611 5608 5605 5601 5598 5594 5591 5589 5586 5582 5578 5574 5570 5566 5562 5557 5552 5547 5543 5538 5534 5530 5525 5520 5517 5512 5508 5502 5497 5492 5488
5611 5611 5611 5610 5610 5609 5608 5607 5606 5604 5603 5600 5597 5594 5590 5587 5583 5580 5577 5575 5572 5569 5566 5562 5558 5554 5549 5545 5540 5535 5530 5526 5522 5519 5514 5509 5504 5500 5497 5493 5487 5482 5478
Wind_Speed
27 26 26 25 25 25 25 25 25 25 26 26 26 27 28 28 28 28 29 29 30 30 30 31 31 30 31 31 31 32 32 32 32 32 32 33 33 33 33 33 34 33 33
28 27 27 27 26 26 26 26 27 27 27 28 28 29 29 30 30 31 31 31 32 32 32 32 32 32 33 33 33 34 34 34 34 34 34 35 35 35 35 35 35 35 35
29 29 28 28 28 28 28 28 28 29 29 29 30 30 31 32 32 33 33 33 34 34 34 34 34 34 35 35 35 35 36 36 36 36 36 37 37 37 37 37 37 37 37
30 30 29 29 29 29 29 30 30 31 31 32 32 33 33 34 34 34 34 34 35 35 35 36 36 36 36 37 37 37 38 38 38 38 39 39 39 39 39 39 39 40 40
31 31 31 30 30 31 31 32 33 33 33 33 34 35 35 35 35 35 36 36 36 36 37 37 37 37 38 38 39 39 40 40 41 41 41 42 42 42 42 42 42 42 43
33 33 32 32 32 33 33 34 35 35 35 35 36 36 36 36 37 37 37 37 37 38 38 38 39 39 40 40 41 42 42 43 43 43 43 44 44 45 45 45 46 46 46
34 34 34 34 34 34 35 35 36 36 36 36 37 37 37 37 37 38 38 39 39 40 40 40 41 42 42 43 44 44 44 45 45 45 46 47 47 48 48 48 49 49 49
34 34 34 34 35 35 36 36 36 36 36 37 37 38 38 38 39 39 40 41 41 41 41 42 43 43 44 45 46 46 46 47 48 48 49 49 50 50 51 51 52 52 51
35 35 36 36 36 36 37 37 37 37 37 38 38 39 39 40 40 40 40 41 41 42 42 43 43 44 44 45 47 47 47 49 49 50 50 51 52 52 53 53 53 52 52
37 37 37 37 37 37 38 38 39 39 39 39 40 40 41 41 41 40 41 41 42 42 43 44 44 45 45 47 48 48 49 50 50 51 52 53 54 54 54 54 53 52 52
38 38 38 38 38 39 40 40 40 40 40 41 41 41 41 41 42 43 42 42 43 43 44 45 46 47 48 49 49 49 50 51 51 52 53 53 53 53 53 52 51 51 51
39 39 39 39 39 39 40 40 41 42 42 42 42 42 42 43 43 44 43 43 43 44 45 46 47 48 49 49 49 50 50 51 52 51 51 51 51 51 51 51 51 50 49
40 40 40 40 40 40 41 41 42 43 43 43 43 44 43 43 44 45 45 45 45 45 45 46 48 48 49 49 50 50 51 51 51 51 50 50 49 50 50 50 51 50 50
41 41 41 42 42 42 42 42 43 43 44 44 44 44 44 44 44 45 45 46 46 46 46 47 48 49 50 50 51 51 51 51 50 50 49 48 48 48 48 49 49 50 51
42 42 42 42 43 43 44 44 44 44 44 44 45 45 45 45 45 45 46 46 47 47 47 48 49 50 51 51 51 51 51 50 49 49 48 46 47 47 48 48 48 48 50
43 43 44 44 44 44 45 44 45 45 45 45 45 45 45 45 45 45 46 47 48 49 49 49 50 51 50 50 50 50 49 49 48 48 48 48 48 49 49 49 49 50 50
44 44 45 45 45 46 46 46 46 46 45 45 45 45 45 46 46 46 47 48 49 50 51 51 51 51 50 50 50 49 49 49 49 49 49 49 49 50 50 49 50 50 50
45 45 45 46 46 47 47 47 47 46 45 45 45 45 46 46 47 47 48 49 50 51 52 52 51 50 50 49 49 49 49 49 49 50 50 49 50 51 51 51 50 50 50
46 46 47 47 47 47 48 48 47 46 46 45 46 47 47 48 48 49 50 51 52 52 53 52 50 50 50 50 49 49 49 49 50 51 51 51 51 51 51 51 50 50 50
48 48 48 48 49 49 48 48 48 47 47 46 46 47 48 49 49 50 51 52 53 53 52 51 50 49 49 50 50 50 51 51 51 51 51 51 51 50 50 50 50 51 51
50 49 49 50 49 49 49 48 48 48 48 47 47 48 49 50 51 51 52 52 53 52 51 50 49 48 48 49 50 51 51 51 51 51 50 49 49 49 49 49 50 51 51
51 51 51 50 49 49 49 49 49 49 48 49 49 49 50 51 52 53 53 53 53 52 51 49 48 48 49 49 50 50 51 51 50 50 50 49 49 49 49 49 50 50 50
51 51 50 50 50 50 50 50 49 49 50 50 51 51 52 53 54 54 54 53 52 51 50 50 49 49 49 50 50 50 50 51 50 49 49 48 49 49 48 48 48 48 48
51 51 51 50 50 50 50 49 50 50 51 52 53 54 54 55 55 55 54 52 50 50 50 50 50 50 50 51 50 50 50 49 48 48 48 48 48 48 48 47 47 47 45
51 51 51 51 51 51 51 51 51 51 52 53 54 54 55 55 55 54 52 50 50 50 50 51 50 50 50 50 50 49 49 49 47 46 47 47 47 46 46 45 45 44 43
50 51 51 51 52 51 51 52 52 52 53 54 54 55 55 54 53 53 51 49 49 49 50 50 50 50 50 50 50 49 49 48 47 46 46 47 46 45 43 42 42 43 42
Wind_Direction
261 263 264 266 268 270 271 273 275 277 277 278 279 281 282 283 284 285 285 285 285 285 286 286 285 284 285 285 285 284 284 284 284 283 283 282 282 283 284 284 284 284 283
260 261 263 265 267 270 271 273 276 277 278 279 279 280 281 282 284 285 285 284 285 286 286 285 285 284 284 284 284 284 285 284 285 284 284 283 283 283 283 284 283 283 283
259 261 263 265 268 270 271 273 276 277 279 280 280 281 281 282 283 284 284 284 284 285 285 284 284 284 284 284 284 284 284 284 285 284 284 285 284 283 283 283 283 282 282
259 261 263 265 268 269 272 275 277 278 280 280 281 281 282 283 283 284 285 284 284 284 285 285 285 285 284 284 284 284 284 284 284 284 284 285 284 284 284 284 284 283 282
260 262 263 265 268 270 272 274 277 278 279 280 281 282 282 283 284 284 285 284 284 284 284 285 285 285 286 285 284 284 285 284 284 284 284 284 284 284 284 283 283 283 282
260 261 263 265 268 271 273 275 277 278 279 280 280 281 282 283 284 284 285 285 285 284 284 285 285 285 286 286 285 285 285 285 285 284 284 284 284 284 284 284 283 283 282
260 261 264 266 269 271 274 276 277 278 279 280 280 281 281 282 283 284 285 286 286 285 285 285 285 285 285 286 286 285 285 286 285 284 284 284 284 284 283 283 283 283 282
260 262 264 267 269 272 274 276 277 278 279 280 281 281 281 282 283 284 285 286 286 285 285 285 285 285 286 286 286 286 286 285 285 285 285 284 284 284 283 282 281 281 281
261 262 265 267 270 272 274 275 277 278 279 280 281 282 282 282 282 283 285 285 286 285 285 286 286 286 287 288 287 286 286 287 286 285 285 285 284 284 283 283 281 280 280
261 263 265 268 270 271 273 275 277 278 279 280 281 282 283 283 283 283 284 285 286 286 286 287 288 288 289 289 289 289 288 288 288 286 285 285 284 284 284 283 282 281 280
261 264 266 269 271 272 274 276 277 278 279 280 281 282 283 284 284 285 285 285 286 286 287 288 289 289 289 289 289 289 290 290 289 289 288 287 286 285 284 284 283 282 280
262 265 268 269 271 273 274 276 277 278 279 280 281 282 282 283 284 285 286 286 286 287 288 289 290 290 290 291 291 291 291 291 291 291 291 289 288 286 285 284 283 282 280
263 265 267 268 270 273 275 276 277 279 279 280 281 282 282 283 284 285 286 287 287 288 289 290 291 291 291 291 291 292 292 292 293 292 292 290 289 287 286 285 283 281 280
263 265 267 268 270 272 275 276 278 279 279 281 281 281 281 283 284 285 286 287 287 288 289 291 291 291 291 291 292 292 292 293 293 292 292 290 290 290 288 286 284 282 281
263 265 267 269 270 273 274 276 278 279 280 281 281 281 281 282 284 285 287 287 289 290 290 291 291 291 291 292 292 292 293 293 292 292 292 291 291 291 290 288 287 284 283
264 266 268 269 270 273 275 276 277 278 280 280 281 281 282 282 285 286 287 288 289 290 291 292 292 292 292 292 292 292 292 292 293 292 292 291 292 291 290 289 287 286 285
265 267 268 270 271 273 274 276 277 278 279 280 280 281 282 283 285 286 288 289 290 291 291 292 293 293 292 292 292 291 292 292 292 292 292 291 291 292 291 290 288 287 285
265 267 269 271 272 272 273 275 277 278 279 280 280 281 283 284 286 287 289 290 290 291 292 293 293 292 292 292 291 291 291 291 292 292 291 291 291 291 291 290 289 288 287
265 267 269 271 271 272 274 275 276 278 279 280 281 282 283 285 286 287 289 290 291 291 292 293 292 292 291 291 291 291 291 292 293 292 291 291 292 292 292 291 290 290 289
265 267 269 270 271 273 274 275 276 277 279 280 281 282 284 285 287 288 289 290 290 291 292 292 292 292 291 291 292 292 292 293 293 293 292 292 292 293 292 291 290 290 290
265 267 269 269 271 272 273 274 276 277 278 279 281 283 284 286 287 288 289 289 290 291 291 291 291 291 291 292 293 293 293 294 294 293 293 292 293 293 293 293 291 291 290
266 267 268 269 270 271 273 274 276 277 278 279 281 283 285 286 287 288 289 289 289 289 290 290 290 291 293 294 294 294 294 294 294 293 293 293 293 294 294 293 293 292 292
266 267 268 269 270 271 273 274 275 276 278 280 282 283 285 286 287 288 289 288 288 288 289 290 291 292 293 294 294 295 295 295 295 294 294 294 294 295 295 294 294 295 295
265 267 268 269 271 272 273 274 275 277 279 281 282 284 285 286 287 288 288 287 286 287 288 289 290 291 293 294 295 296 296 296 295 295 295 295 296 296 296 295 295 295 294
265 266 268 269 270 271 272 274 276 278 279 280 282 284 285 286 287 287 286 286 286 287 288 289 290 292 293 294 294 295 296 296 295 294 295 296 297 296 296 295 294 294 294
266 267 268 269 270 272 273 275 276 278 280 281 283 285 286 286 286 286 285 285 286 287 288 289 291 292 293 294 294 294 295 296 295 294 294 296 297 297 296 294 293 294 294